| time (UTC) | temp F | wind direction | speed knots | gust knots | rain 1hr in | rain 24hr in | rain mn in | humidity % | barometer mb |
| 20260507114557 | 30 | 154 | 1.7 | 3.5 | 0.00 | 0.00 | 0.00 | 81 | 1011.3 |
| 20260507113134 | 29 | 154 | 2.6 | 3.5 | 0.00 | 0.00 | 0.00 | 82 | 1011.2 |
| 20260507111533 | 29 | 154 | 3.5 | 4.3 | 0.00 | 0.00 | 0.00 | 81 | 1011.4 |
| 20260507110106 | 29 | 154 | 2.6 | 4.3 | 0.00 | 0.00 | 0.00 | 81 | 1011.3 |
| 20260507104523 | 29 | 154 | 3.5 | 5.2 | 0.00 | 0.00 | 0.00 | 81 | 1011.4 |
| 20260507103050 | 29 | 154 | 1.7 | 3.5 | 0.00 | 0.00 | 0.00 | 80 | 1011.5 |
| 20260507101607 | 29 | 154 | 2.6 | 4.3 | 0.00 | 0.00 | 0.00 | 80 | 1011.5 |
| 20260507100042 | 29 | 154 | 3.5 | 6.1 | 0.00 | 0.00 | 0.00 | 80 | 1011.5 |
| 20260507094624 | 29 | 154 | 3.5 | 6.1 | 0.00 | 0.00 | 0.00 | 79 | 1011.6 |
| 20260507093031 | 29 | 155 | 4.3 | 7.0 | 0.00 | 0.00 | 0.00 | 78 | 1011.7 |
| 20260507091547 | 30 | 157 | 2.6 | 6.1 | 0.00 | 0.00 | 0.00 | 77 | 1011.8 |
| 20260507090000 | 30 | 155 | 4.3 | 7.0 | 0.00 | 0.00 | 0.00 | 75 | 1011.9 |
| 20260507084549 | 31 | 148 | 6.1 | 8.7 | 0.00 | 0.00 | 0.00 | 74 | 1011.9 |
| 20260507083017 | 31 | 154 | 6.1 | 9.6 | 0.00 | 0.00 | 0.00 | 73 | 1011.9 |
| 20260507081540 | 32 | 150 | 6.1 | 8.7 | 0.00 | 0.00 | 0.00 | 72 | 1011.9 |
| 20260507080006 | 33 | 154 | 4.3 | 8.7 | 0.00 | 0.00 | 0.00 | 70 | 1012.0 |
| 20260507074546 | 34 | 155 | 7.0 | 10.4 | 0.00 | 0.00 | 0.00 | 68 | 1012.1 |
| 20260507073041 | 35 | 154 | 7.8 | 11.3 | 0.00 | 0.00 | 0.00 | 65 | 1012.2 |
| 20260507071512 | 36 | 360 | 7.0 | 12.2 | 0.00 | 0.00 | 0.00 | 65 | 1012.3 |
| 20260507070054 | 36 | 360 | 8.7 | 13.0 | 0.00 | 0.00 | 0.00 | 65 | 1012.3 |
| 20260507064608 | 36 | 360 | 9.6 | 13.0 | 0.00 | 0.00 | 0.00 | 66 | 1012.4 |
| 20260507063032 | 36 | 360 | 7.8 | 0.0 | 1.72 | 0.00 | 0.00 | 66 | 1012.5 |
| 20260507061608 | 37 | 136 | 6.1 | 10.4 | 0.00 | 0.00 | 0.00 | 64 | 1012.7 |
| 20260507060107 | 37 | 129 | 6.1 | 10.4 | 0.00 | 0.00 | 0.00 | 64 | 1012.7 |
| 20260507054538 | 37 | 119 | 6.1 | 9.6 | 0.00 | 0.00 | 0.00 | 65 | 1012.5 |
| 20260507053104 | 37 | 117 | 4.3 | 7.8 | 0.00 | 0.00 | 0.00 | 65 | 1012.6 |
| 20260507051525 | 37 | 130 | 7.8 | 10.4 | 0.00 | 0.00 | 0.00 | 65 | 1012.5 |
| 20260507050036 | 37 | 119 | 5.2 | 8.7 | 0.00 | 0.00 | 0.00 | 65 | 1012.8 |
| 20260507044520 | 38 | 121 | 3.5 | 7.0 | 0.00 | 0.00 | 0.00 | 63 | 1013.0 |
| 20260507043012 | 39 | 118 | 6.1 | 9.6 | 0.00 | 0.00 | 0.00 | 62 | 1012.9 |
| 20260507041512 | 40 | 103 | 2.6 | 7.0 | 0.00 | 0.00 | 0.00 | 60 | 1013.1 |
| 20260507040013 | 41 | 105 | 3.5 | 7.0 | 0.00 | 0.00 | 0.00 | 60 | 1013.2 |
| 20260507034511 | 41 | 94 | 3.5 | 7.8 | 0.00 | 0.00 | 0.00 | 58 | 1013.3 |
| 20260507033008 | 42 | 104 | 1.7 | 6.1 | 0.00 | 0.00 | 0.00 | 57 | 1013.3 |
| 20260507031509 | 43 | 94 | 0.0 | 2.6 | 0.00 | 0.00 | 0.00 | 55 | 1013.4 |
| 20260507030009 | 44 | 95 | 0.9 | 4.3 | 0.00 | 0.00 | 0.00 | 52 | 1013.5 |
| 20260507024507 | 45 | 94 | 0.9 | 6.1 | 0.00 | 0.00 | 0.00 | 48 | 1013.5 |
| 20260507023038 | 46 | 20 | 0.0 | 3.5 | 0.00 | 0.00 | 0.00 | 45 | 1013.5 |
| 20260507021556 | 47 | 17 | 0.9 | 3.5 | 0.00 | 0.00 | 0.00 | 43 | 1013.4 |
| 20260507020110 | 48 | 355 | 0.0 | 1.7 | 0.00 | 0.00 | 0.00 | 43 | 1013.4 |
| 20260507014533 | 48 | 355 | 0.0 | 0.0 | 0.00 | 0.00 | 0.00 | 42 | 1013.3 |
| 20260507013108 | 49 | 355 | 0.0 | 5.2 | 0.00 | 0.00 | 0.00 | 41 | 1013.3 |
| 20260507011532 | 49 | 344 | 0.0 | 1.7 | 0.00 | 0.00 | 0.00 | 40 | 1013.3 |
| 20260507010059 | 50 | 344 | 0.9 | 4.3 | 0.00 | 0.00 | 0.00 | 39 | 1013.3 |
| 20260507004608 | 51 | 5 | 0.0 | 5.2 | 0.00 | 0.00 | 0.00 | 38 | 1013.3 |
| 20260507003025 | 51 | 318 | 1.7 | 6.1 | 0.00 | 0.00 | 0.00 | 38 | 1013.5 |
| 20260507001607 | 51 | 319 | 2.6 | 7.8 | 0.00 | 0.00 | 0.00 | 39 | 1013.6 |
| 20260507000150 | 51 | 323 | 3.5 | 8.7 | 0.00 | 0.00 | 0.00 | 41 | 1013.8 |
| 20260506234540 | 52 | 244 | 1.7 | 8.7 | 0.00 | 0.00 | 0.00 | 37 | 1013.8 |
| 20260506233100 | 52 | 349 | 2.6 | 9.6 | 0.00 | 0.00 | 0.00 | 39 | 1014.0 |
| 20260506231525 | 52 | 5 | 6.1 | 11.3 | 0.00 | 0.00 | 0.00 | 38 | 1014.1 |
| 20260506230048 | 52 | 325 | 6.1 | 12.2 | 0.00 | 0.00 | 0.00 | 37 | 1014.2 |
| 20260506224507 | 52 | 341 | 5.2 | 12.2 | 0.00 | 0.00 | 0.00 | 38 | 1014.3 |
| 20260506223100 | 52 | 346 | 2.6 | 7.8 | 0.00 | 0.00 | 0.00 | 39 | 1014.5 |
| 20260506221526 | 51 | 355 | 5.2 | 10.4 | 0.00 | 0.00 | 0.00 | 40 | 1014.6 |
| 20260506220003 | 51 | 323 | 1.7 | 10.4 | 0.00 | 0.00 | 0.00 | 44 | 1014.8 |
| 20260506214545 | 51 | 280 | 2.6 | 13.9 | 0.00 | 0.00 | 0.00 | 42 | 1015.0 |
| 20260506213006 | 50 | 302 | 1.7 | 9.6 | 0.00 | 0.00 | 0.00 | 42 | 1015.3 |
| 20260506211534 | 50 | 319 | 4.3 | 7.8 | 0.00 | 0.00 | 0.00 | 44 | 1015.4 |
| 20260506210045 | 50 | 309 | 6.1 | 14.8 | 0.00 | 0.00 | 0.00 | 41 | 1015.7 |
| 20260506204508 | 51 | 299 | 5.2 | 10.4 | 0.00 | 0.00 | 0.00 | 42 | 1015.8 |
| 20260506203037 | 51 | 319 | 5.2 | 13.0 | 0.00 | 0.00 | 0.00 | 40 | 1016.0 |
| 20260506201603 | 51 | 319 | 4.3 | 13.0 | 0.00 | 0.00 | 0.00 | 42 | 1016.1 |
| 20260506200026 | 49 | 5 | 6.1 | 12.2 | 0.00 | 0.00 | 0.00 | 44 | 1016.4 |
| 20260506194624 | 50 | 326 | 6.1 | 11.3 | 0.00 | 0.00 | 0.00 | 43 | 1016.5 |
| 20260506193024 | 49 | 323 | 5.2 | 9.6 | 0.00 | 0.00 | 0.00 | 47 | 1016.9 |
| 20260506191559 | 48 | 304 | 7.8 | 13.0 | 0.00 | 0.00 | 0.00 | 44 | 1017.0 |
| 20260506190026 | 49 | 326 | 6.1 | 12.2 | 0.00 | 0.00 | 0.00 | 47 | 1017.1 |
| 20260506184611 | 49 | 303 | 6.1 | 12.2 | 0.00 | 0.00 | 0.00 | 46 | 1017.2 |
| 20260506183134 | 48 | 284 | 4.3 | 11.3 | 0.00 | 0.00 | 0.00 | 46 | 1017.3 |
| 20260506181559 | 48 | 340 | 6.1 | 13.0 | 0.00 | 0.00 | 0.00 | 45 | 1017.4 |
| 20260506180017 | 47 | 298 | 6.1 | 13.9 | 0.00 | 0.00 | 0.00 | 49 | 1017.7 |
| 20260506174547 | 46 | 13 | 3.5 | 12.2 | 0.00 | 0.00 | 0.00 | 49 | 1017.9 |
| 20260506173009 | 46 | 267 | 3.5 | 8.7 | 0.00 | 0.00 | 0.00 | 48 | 1018.1 |
| 20260506171545 | 46 | 298 | 5.2 | 13.9 | 0.00 | 0.00 | 0.00 | 51 | 1018.3 |
| 20260506170008 | 46 | 306 | 6.1 | 14.8 | 0.00 | 0.00 | 0.00 | 48 | 1018.5 |
| 20260506164550 | 46 | 331 | 4.3 | 11.3 | 0.00 | 0.00 | 0.00 | 50 | 1018.4 |
| 20260506163012 | 46 | 338 | 5.2 | 12.2 | 0.00 | 0.00 | 0.00 | 51 | 1018.6 |
| 20260506161601 | 44 | 342 | 7.0 | 12.2 | 0.00 | 0.00 | 0.00 | 50 | 1018.6 |
| 20260506160027 | 45 | 307 | 2.6 | 9.6 | 0.00 | 0.00 | 0.00 | 51 | 1018.6 |
| 20260506154607 | 44 | 337 | 6.1 | 10.4 | 0.00 | 0.00 | 0.00 | 51 | 1018.6 |
| 20260506153107 | 43 | 290 | 3.5 | 9.6 | 0.00 | 0.00 | 0.00 | 54 | 1018.9 |
| 20260506151535 | 43 | 319 | 3.5 | 6.1 | 0.00 | 0.00 | 0.00 | 57 | 1018.9 |
| 20260506150112 | 42 | 332 | 0.0 | 6.1 | 0.00 | 0.00 | 0.00 | 57 | 1018.9 |
| 20260506144642 | 41 | 351 | 0.0 | 2.6 | 0.00 | 0.00 | 0.00 | 58 | 1019.1 |
| 20260506143103 | 40 | 355 | 2.6 | 6.1 | 0.00 | 0.00 | 0.00 | 60 | 1019.1 |
| 20260506141524 | 38 | 360 | 0.0 | 3.5 | 0.00 | 0.00 | 0.00 | 68 | 1019.1 |
| 20260506134545 | 35 | 360 | 0.0 | 4.3 | 0.00 | 0.00 | 0.00 | 75 | 1019.1 |
| 20260506133009 | 34 | 360 | 0.9 | 4.3 | 0.00 | 0.00 | 0.00 | 75 | 1019.2 |
| 20260506131538 | 33 | 360 | 0.0 | 3.5 | 0.00 | 0.00 | 0.00 | 76 | 1019.0 |
| 20260506130012 | 32 | 360 | 1.7 | 4.3 | 0.00 | 0.00 | 0.00 | 80 | 1019.0 |
| 20260506124552 | 30 | 360 | 0.0 | 0.9 | 0.00 | 0.00 | 0.00 | 87 | 1018.9 |
| 20260506123013 | 27 | 360 | 0.0 | 0.0 | 0.00 | 0.00 | 0.00 | 89 | 1018.8 |
| 20260506121542 | 25 | 360 | 0.0 | 0.0 | 0.00 | 0.00 | 0.00 | 86 | 1018.7 |
| 20260506120011 | 24 | 360 | 0.0 | 0.0 | 0.00 | 0.00 | 0.00 | 84 | 1018.4 |